Terug naar catalogus

FENGYUN 1C DEB

ActiefSSO
NORAD 33618·DEBRIS·🇨🇳 China

Gelanceerd May 10, 1999 vanaf Taiyuan Satellite Launch Center

Loading…

Volgende Passages (komende 24 uur)

TLE

VersSource: Space-Track

Epoch: Sep 14, 2026, 12:30 UTC

1 33618U 99025DDB 26257.52108801  .00001934  00000-0  31393-3 0  9992
2 33618  98.5276 359.2876 0158090   3.7111 356.5223 14.64476271  8136

Volg FENGYUN 1C DEB in realtime met AllMySat

Download on the App Store